ASTRA 5B (EGNOS/PRN 123)

Last updated on Nov. 13, 2019, 4:21 a.m. UTC

1 39617U 14011B   19316.26483630  .00000168  00000-0  00000+0 0  9999
2 39617   0.0613 301.5020 0003828 287.6191 308.8628  1.00273061 20719
UTC
Height (km)
Latitude
Longitude
Inclination
Orbital Period
UTC large
Height (km)
Speed (km/s)
/
Latitude / Longitude
Inclination (degrees)
Orbital Period (minutes)
Azimuth
Elevation
Range (km)
Doppler Factor
iOS Compass Heading
iOS Angle

Next 30 passes for location: Hong Kong

Rise time Rise Azimuth (degrees) Set time Set Azimuth (degrees) Duration Max altitude (degrees)

No matching passes for this satellites